Tracking 30922 objects as of 2-Jul-2025
HD Live streaming from Space Station
objects crossing your sky now

SL-16 DEB

Track SL-16 DEB now!
10-day predictions


NORAD ID: 22374
Int'l Code: 1992-093BP
Perigee: 808.3 km
Apogee: 1,064.3 km
Inclination: 70.8 °
Period: 103.6 minutes
Semi major axis: 7307 km
RCS: 0.0173 m2 (small)
Launch date: December 25, 1992
Source: Commonwealth of Independent States (former USSR) (CIS)
Launch site: TYURATAM MISSILE AND SPACE COMPLEX (TTMTR)

Note: This is SATELLITE DEBRIS
Your satellite tracking list
Your tracking list is empty




NASA's NSSDC Master Catalog

Two Line Element Set (TLE):
1 22374U 92093BP  25182.00983326  .00000595  00000-0  46189-3 0  9990
2 22374  70.7874 138.9403 0175161 277.4483 151.2604 13.89850362637917
Source of the keplerian elements: AFSPC